Location: Chillicothe
(39.7950°N, 93.5520°W)
Time: 19:16:01
(UTC-06:00)

Vanguard 3 - Pass Details

Date: 30 October 2019
Orbit: 508 x 3263 km, 33.4° (Epoch: 18 November)

Event Time Altitude Azimuth Distance (km) Brightness Sun altitude
Rises 18:40:32 0° 208° (SSW) 6,204 12.3 -5.6°
Reaches altitude 10° 18:46:52 10° 193° (SSW) 4,625 11.4 -6.8°
Maximum altitude 18:54:02 18° 157° (SSE) 3,263 10.1 -8.1°
Drops below altitude 10° 18:59:20 10° 117° (ESE) 3,253 9.8 -9.1°
Enters shadow 19:00:42 - 109° (ESE) 3,439 9.8 -9.4°
